Weather Roundup
Issued by NWS

Home | Current Version | Previous Version | Graphics & Text | Print | Product List | Glossary Off
Versions: 1 2 3 4 5 6 7 8 9 10 11 12 13 14 15 16 17 18 19 20 21 22 23 24 25 26 27 28 29 30 31 32 33 34 35 36 37 38 39 40 41 42 43 44 45 46 47 48 49 50

021
NZUS93 KARX 051910
HRRWXR

CURRENT HOURLY OBSERVATIONS ACROSS
MUCH OF THE UPPER MISSISSIPPI VALLEY
NATIONAL WEATHER SERVICE LA CROSSE WI
100 PM CST FRI FEB 05 2016


...SOUTHEAST MINNESOTA...


CITY           SKY/WX    TMP DP  RH WIND       PRES   REMARKS
ROCHESTER      CLOUDY    20  15  81 S10       30.29F WCI   9
ROCHESTER/MAYO CLOUDY    24  15  68 S9        30.30F WCI  14
WINONA         CLOUDY    27  14  59 SW5       30.35F WCI  21
AUSTIN         CLOUDY    19  16  86 S12       30.29F WCI   7
ALBERT LEA     CLOUDY    23  16  74 S8        30.28F WCI  14
DODGE CENTER   CLOUDY    21  16  79 S10       30.28F WCI  10
PRESTON        CLOUDY    22  14  72 S7        30.31F WCI  13
OWATONNA       MOSUNNY   23  16  74 S10       30.27F WCI  12
FARIBAULT      CLOUDY    25  18  74 S12       30.27F WCI  14
$$

...ELSEWHERE IN MINNESOTA...


CITY           SKY/WX    TMP DP  RH WIND       PRES   REMARKS
MINNEAPOLIS    CLOUDY    25  16  68 SE8       30.27F WCI  16
INTNL FALLS    CLOUDY    24  13  62 SW6       30.10F WCI  17
DULUTH         MOSUNNY   22  11  62 S14       30.16F WCI   9
RED WING       MOSUNNY   21  12  68 SE7       30.31F WCI  13
REDWOOD FALLS  CLOUDY    26  17  68 S9        30.20F WCI  17
MANKATO        CLOUDY    21  16  79 S13       30.27F WCI   9
WORTHINGTON    CLOUDY    25  18  74 S21G29    30.19F WCI  10
FAIRMONT       CLOUDY    21  16  79 S17       30.24F WCI   7
$$

...SOUTHWEST WISCONSIN...


CITY           SKY/WX    TMP DP  RH WIND       PRES   REMARKS
LA CROSSE      CLOUDY    22  13  68 S8        30.35F WCI  12
PRAIRIE DU CHI CLOUDY    28  14  56 W5        30.36F WCI  22
BOSCOBEL       MOSUNNY   28  16  60 S6        30.36F WCI  22
LONE ROCK      SUNNY     28  17  63 W5        30.36F WCI  23
PLATTEVILLE    SUNNY     27  20  76 SW5       30.35S WCI  21
FORT MC COY    MOSUNNY   24  15  66 W5        30.34F WCI  19
CAMP DOUGLAS   CLOUDY    28  19  69 CALM      30.32F
VIROQUA        FAIR      24  15  67 W3        30.31F
WIS DELLS      SUNNY     27  15  61 W5        30.32F WCI  22
$$

...ELSEWHERE IN WISCONSIN...


CITY           SKY/WX    TMP DP  RH WIND       PRES   REMARKS
MILWAUKEE      PTSUNNY   30  16  56 W10       30.33F WCI  21
MADISON        CLOUDY    28  15  58 VRB6      30.34F WCI  22
GREEN BAY      SUNNY     25  14  63 W5        30.32F WCI  19
EAU CLAIRE     CLOUDY    21  12  68 S7        30.31F WCI  12
BLACK RVR FLS  FAIR      24  13  61 SW3       30.33F
MEDFORD        MOSUNNY   19  11  70 S3        30.26S
WAUSAU         CLOUDY    24  11  57 NW5       30.26F WCI  18
WIS RAPIDS     SUNNY     25  13  60 W6        30.32F WCI  18
MARSHFIELD     MOSUNNY   22  11  62 W6        30.28F WCI  14
RICE LAKE      CLOUDY    21  11  66 S8        30.30S WCI  11
$$

...NORTHEAST IOWA...


CITY           SKY/WX    TMP DP  RH WIND       PRES   REMARKS
WATERLOO       CLOUDY    21  14  74 S9        30.36F WCI  11
DUBUQUE        MOSUNNY   25  18  74 SW6       30.35F WCI  18
DECORAH        CLOUDY    21  12  68 S6        30.32F WCI  14
MASON CITY     CLOUDY    20  16  84 S12       30.32F WCI   8
CHARLES CITY   CLOUDY    18  16  93 S9        30.34F WCI   6
OELWEIN        CLOUDY    18  14  86 S7        30.36F WCI   8
$$

...ELSEWHERE IN IOWA...


CITY           SKY/WX    TMP DP  RH WIND       PRES   REMARKS
DES MOINES     CLOUDY    27  16  63 S9        30.36F WCI  18
IOWA CITY      CLOUDY    28  20  71 W7        30.41F WCI  21
FORT DODGE     CLOUDY    25  16  68 S10       30.31F WCI  15
MARSHALLTOWN   CLOUDY    24  17  74 S6        30.35F WCI  17
CEDAR RAPIDS   MOSUNNY   26  19  74 W5        30.37F WCI  20
$$

...NORTHERN ILLINOIS...


CITY           SKY/WX    TMP DP  RH WIND       PRES   REMARKS
CHICAGO-OHARE  PTSUNNY   31  21  66 NW7       30.34S WCI  24
CHICAGO-MIDWAY PTSUNNY   32  21  64 W7        30.34F WCI  26
MOLINE         CLOUDY    31  18  58 VRB3      30.38F
ROCKFORD       CLOUDY    31  19  61 W7        30.38F WCI  24
PEORIA         PTSUNNY   31  20  63 W7        30.40S WCI  24
$$

NOTE: "FAIR" INDICATES FEW OR NO CLOUDS BELOW 12,000 FEET WITH NO
SIGNIFICANT WEATHER AND/OR OBSTRUCTIONS TO VISIBILITY. WIND
SPEEDS ARE IN MILES-PER-HOUR.




USA.gov is the U.S. government's official web portal to all federal, state and local government web resources and services.